Погода в Куратово

Россия / Республика Коми     60°54′28″N   49°43′21″E
темп.,
°C
ветер,
м/с
пор.,
м/с
влажн.,
%
обл.,
%
осадки,
мм/ч
давл.,
гПа
погр.,
м
27 сентября, пн
пн2700:00+5в4895100 0.5 1019818
03:00+4в4897100 0.6 1021654
06:00+4в4995100 0.0 1023667
09:00+4всв4891100 0.0 1025641
12:00+7в476659 0.0 1027873
15:00+8в365794 0.0 10281018
18:00+3всв277861 0.0 1030137
21:00+1в248591 0.0 103284
28 сентября, вт
вт2800:00+1всв118697 0.0 103318
03:00−1всв119366 0.0 103310
06:00−1св119196 0.0 103410
09:00+5св116460 0.0 1033309
12:00+8сз12505 0.0 1032778
15:00+9ссз234976 0.0 10311033
18:00+4ссз2276100 0.0 103225
21:00+4ссз1177100 0.0 103228
29 сентября, ср
ср2900:00+5зсз1387100 0.1 103274
03:00+5зсз2596100 0.1 1032192
06:00+5сз1597100 0.0 1032178
09:00+7ссз1394100 0.1 1032188
12:00+9ссз238199 0.0 1032621
15:00+9сз2375100 0.1 1032665
18:00+6сз2290100 0.0 103131
21:00+5зсз229466 0.0 103117
30 сентября, чт
чт3000:00+5з2593100 0.6 1031124
03:00+6зюз269299 0.8 1030184
06:00+5з399863 0.0 1029243
09:00+8зсз388372 0.0 1029410
12:00+11сз46645 0.0 1028757
15:00+12сз37655 0.0 1027939
18:00+7сз289074 0.0 1028154
21:00+7сз2893100 0.0 1028226
1 октября, пт
пт100:00+7сз2791100 0.0 1028312
03:00+7сз2789100 0.0 1028258
06:00+7сз2691100 0.0 1029254
09:00+8сз2485100 0.0 1029310
12:00+9сз2477100 0.0 1030720
15:00+9ссз2479100 0.1 1030492
18:00+8сз1286100 0.0 103037
21:00+8сз118699 0.0 103130